Stations météo

réclame
Mon MeteoGroup
Hohenfels, Allemagne (10775): Température de l'air & dewpoint: 12.01.2019 13:00:00 - 18.01.2019 13:00:00 (CET)Hohenfels, Allemagne (10775): Vitesse du vent & gusts: 12.01.2019 13:00:00 - 18.01.2019 13:00:00 (CET)Hohenfels, Allemagne (10775): Direction du vent: 12.01.2019 13:00:00 - 18.01.2019 13:00:00 (CET)Hohenfels, Allemagne (10775): reduced air pressure: 12.01.2019 13:00:00 - 18.01.2019 13:00:00 (CET)Hohenfels, Allemagne (10775): visibility: 12.01.2019 13:00:00 - 18.01.2019 13:00:00 (CET)Hohenfels, Allemagne (10775): Quantités de précipitations: 12.01.2019 13:00:00 - 18.01.2019 13:00:00 (CET)
Date & Time tt [°C] td [°C] ff [km/h] ff [knt] fx [km/h] fx [knt] dd ppp [hPa] vv [km] rr [mm]
18.01.2019 13:00:00 - - - - - - - - - -
18.01.2019 12:00:00 0,4 -1,4 13 7 - - W 1020,9 10 -
18.01.2019 11:00:00 0,3 -0,9 11 6 - - W 1020,7 10 -
18.01.2019 10:00:00 -0,2 -0,3 8 4 - - W 1020,0 10 -
18.01.2019 09:00:00 -0,5 -0,6 18 10 - - W 1018,6 10 0,0
18.01.2019 08:00:00 -0,5 -1,1 18 10 - - W 1017,4 10 -
18.01.2019 07:00:00 -0,2 -0,9 21 11 - - W 1016,4 10 -
18.01.2019 06:00:00 0,0 -1,0 16 9 - - W 1015,3 10 0,0
18.01.2019 05:00:00 0,1 0,0 16 9 - - W 1014,6 10 0,0
18.01.2019 04:00:00 0,1 0,0 16 9 - - W 1014,0 10 0,0
18.01.2019 03:00:00 0,1 0,0 15 8 - - W 1013,1 10 -
18.01.2019 02:00:00 0,2 0,1 11 6 - - W 1012,7 10 0,0
18.01.2019 01:00:00 0,7 0,6 9 5 - - WNW 1012,2 10 0,0
18.01.2019 00:00:00 0,7 0,6 16 9 - - W 1011,2 10 0,3
17.01.2019 23:00:00 1,5 1,4 21 11 - - W 1010,7 10 0,0
17.01.2019 22:00:00 1,5 1,4 8 4 - - WSW 1010,3 10 0,3
17.01.2019 21:00:00 2,0 2,0 16 9 - - W 1009,9 10 0,8
17.01.2019 20:00:00 3,1 3,0 13 7 - - SW 1008,6 10 -
17.01.2019 19:00:00 3,6 3,5 13 7 - - SSW 1007,9 10 0,3
17.01.2019 18:00:00 4,7 3,2 13 7 - - SW 1007,0 10 -
17.01.2019 17:00:00 4,8 3,8 13 7 - - SW 1006,7 10 -
17.01.2019 16:00:00 5,0 4,0 22 12 - - WSW - 10 0,0
17.01.2019 15:00:00 6,7 5,5 15 8 - - SW - 10 0,0
17.01.2019 14:00:00 6,8 5,1 11 6 - - SW - 10 0,0
17.01.2019 13:00:00 7,1 5,2 11 6 - - SW - 10 -
17.01.2019 12:00:00 6,1 4,6 9 5 - - SSW 1006,6 10 0,0
17.01.2019 11:00:00 4,9 4,0 15 8 - - SW 1007,3 10 0,0
17.01.2019 10:00:00 3,9 3,5 8 4 - - SSW 1007,3 10 0,0
17.01.2019 09:00:00 2,7 2,3 0 0 - - N 1008,0 10 -
17.01.2019 08:00:00 3,0 2,1 5 3 - - SSW 1008,1 10 -
17.01.2019 07:00:00 2,8 1,8 8 4 - - SSW 1008,5 10 -
17.01.2019 06:00:00 3,2 1,7 5 3 - - SSW 1007,8 10 -
17.01.2019 05:00:00 2,5 1,0 5 3 - - SSW 1008,3 10 -
17.01.2019 04:00:00 1,3 0,1 8 4 - - S 1008,6 10 -
17.01.2019 03:00:00 - - - - - - - - - -
17.01.2019 02:00:00 - - - - - - - - - -
17.01.2019 01:00:00 0,3 -0,3 5 3 - - WSW 1009,2 10 -
17.01.2019 00:00:00 0,9 0,0 0 0 - - N 1009,6 10 -
16.01.2019 23:00:00 1,9 0,6 5 3 - - SW 1010,0 10 -
16.01.2019 22:00:00 1,5 0,6 0 0 - - N 1010,3 10 -
16.01.2019 21:00:00 -0,2 -0,3 0 0 - - N 1011,1 10 -
16.01.2019 20:00:00 -0,1 -0,2 0 0 - - N 1011,4 10 -
16.01.2019 19:00:00 0,3 0,2 0 0 - - N 1012,1 10 -
16.01.2019 18:00:00 1,9 1,5 0 0 - - N 1012,2 10 -
16.01.2019 17:00:00 3,2 1,9 0 0 - - N 1012,4 10 -
16.01.2019 16:00:00 4,2 2,5 0 0 - - N 1013,1 10 -
16.01.2019 15:00:00 5,0 2,9 5 3 - - S 1013,2 10 -
16.01.2019 14:00:00 5,0 3,0 5 3 - - SSE 1013,5 10 -
16.01.2019 13:00:00 4,8 2,7 9 5 - - SSW 1014,6 10 -
16.01.2019 12:00:00 4,3 2,5 8 4 - - SW 1015,6 10 -
16.01.2019 11:00:00 3,4 1,8 8 4 - - WSW 1016,8 10 -
16.01.2019 10:00:00 3,3 2,0 8 4 - - SW - 10 -
16.01.2019 09:00:00 2,9 1,9 9 5 - - SW - 10 -
16.01.2019 08:00:00 2,8 1,9 8 4 - - SW - 10 -
16.01.2019 07:00:00 2,9 2,2 9 5 - - WSW - 10 -
16.01.2019 06:00:00 2,9 2,5 9 5 - - WSW 1017,2 10 -
16.01.2019 05:00:00 2,9 2,5 8 4 - - SW 1017,5 10 -
16.01.2019 04:00:00 2,9 2,8 11 6 - - WSW 1017,9 10 -
16.01.2019 03:00:00 2,9 2,8 15 8 - - W 1018,6 10 -
16.01.2019 02:00:00 3,0 2,9 16 9 - - WSW 1018,6 10 -
16.01.2019 01:00:00 3,0 2,9 13 7 - - W 1019,1 10 -
16.01.2019 00:00:00 3,0 2,9 16 9 - - W 1019,1 10 0,0
15.01.2019 23:00:00 3,0 2,9 15 8 - - WSW 1019,4 10 -
15.01.2019 22:00:00 2,9 2,8 15 8 - - SW 1019,8 10 0,0
15.01.2019 21:00:00 - - - - - - - - - -
15.01.2019 20:00:00 - - - - - - - - - -
15.01.2019 19:00:00 - - - - - - - - - -
15.01.2019 18:00:00 3,2 2,0 13 7 - - SW 1019,4 10 -
15.01.2019 17:00:00 3,0 2,1 15 8 - - WSW 1019,4 10 -
15.01.2019 16:00:00 2,8 2,2 16 9 - - W 1019,4 10 -
15.01.2019 15:00:00 2,8 2,1 11 6 - - WSW 1019,4 10 0,0
15.01.2019 14:00:00 2,7 2,3 16 9 - - WSW 1019,8 10 0,0
15.01.2019 13:00:00 1,9 1,8 15 8 - - WSW 1020,3 10 0,0
15.01.2019 12:00:00 1,7 1,6 24 13 - - W 1020,7 10 -
15.01.2019 11:00:00 1,3 0,9 13 7 - - WSW 1021,7 10 -
15.01.2019 10:00:00 1,0 0,6 21 11 - - WSW 1021,9 10 -
15.01.2019 09:00:00 0,6 0,5 15 8 - - WSW 1021,4 10 -
15.01.2019 08:00:00 0,6 0,3 22 12 - - W 1021,0 10 -
15.01.2019 07:00:00 0,6 -0,1 16 9 - - W 1020,7 10 -
15.01.2019 06:00:00 0,7 -0,3 8 4 - - WSW 1020,5 10 -
15.01.2019 05:00:00 0,4 -0,6 16 9 - - W 1020,0 10 -
15.01.2019 04:00:00 0,6 -0,4 18 10 - - W 1019,3 10 -
15.01.2019 03:00:00 0,7 -0,3 18 10 - - W 1019,1 10 0,0
15.01.2019 02:00:00 0,3 -0,3 15 8 - - W 1018,6 10 0,0
15.01.2019 01:00:00 -0,3 -0,4 11 6 - - W 1018,3 5 0,0
15.01.2019 00:00:00 0,2 -0,9 16 9 - - W 1017,9 10 -
14.01.2019 23:00:00 0,3 -0,7 15 8 - - WNW 1017,4 10 -
14.01.2019 22:00:00 -0,5 -0,6 11 6 - - W 1016,7 10 0,3
14.01.2019 21:00:00 0,8 -0,1 15 8 - - WNW 1015,7 10 0,0
14.01.2019 20:00:00 1,0 -0,2 13 7 - - WNW 1015,3 10 0,0
14.01.2019 19:00:00 0,8 0,7 16 9 - - WNW 1014,3 10 0,0
14.01.2019 18:00:00 2,0 0,2 13 7 - - WNW 1012,4 10 -
14.01.2019 17:00:00 1,8 0,9 15 8 - - WNW 1011,4 10 -
14.01.2019 16:00:00 1,7 1,6 18 10 - - WNW 1010,3 10 0,3
14.01.2019 15:00:00 2,9 2,8 22 12 - - WNW 1008,8 10 0,0
14.01.2019 14:00:00 2,8 2,7 16 9 - - W 1008,4 10 0,0
14.01.2019 13:00:00 2,3 2,2 16 9 - - W 1008,3 10 0,0
14.01.2019 12:00:00 1,5 1,4 9 5 - - W 1008,1 10 0,8
14.01.2019 11:00:00 3,3 2,7 15 8 - - W 1008,1 10 -
14.01.2019 10:00:00 3,0 2,3 11 6 - - WNW 1007,5 10 -
14.01.2019 09:00:00 2,9 2,5 16 9 - - WNW 1007,0 10 -
14.01.2019 08:00:00 3,3 3,0 13 7 - - WNW 1005,7 10 -
14.01.2019 07:00:00 3,6 3,5 18 10 - - W 1004,3 10 0,0
14.01.2019 06:00:00 4,2 4,1 18 10 50 27 W 1002,9 10 0,0
14.01.2019 05:00:00 4,1 4,0 21 11 - - WNW 1001,9 10 -
14.01.2019 04:00:00 4,3 4,2 18 10 - - W 1001,8 10 0,0
14.01.2019 03:00:00 4,6 4,5 18 10 - - W 1001,1 10 0,0
14.01.2019 02:00:00 4,4 4,3 22 12 - - W 1000,7 10 0,0
14.01.2019 01:00:00 4,5 4,4 24 13 - - W 999,8 10 0,0
14.01.2019 00:00:00 5,4 5,3 24 13 48 26 W 998,5 10 0,3
13.01.2019 23:00:00 5,9 5,8 22 12 - - W 997,9 10 -
13.01.2019 22:00:00 6,1 6,0 21 11 48 26 W 998,3 10 1,3
13.01.2019 21:00:00 5,8 5,8 13 7 - - WSW 998,8 9 1,3
13.01.2019 20:00:00 5,5 5,5 15 8 - - WSW 999,5 8 1,0
13.01.2019 19:00:00 4,9 4,9 16 9 - - WSW 1000,5 8 1,3
13.01.2019 18:00:00 4,1 4,1 15 8 - - WSW 1001,4 6 0,5
13.01.2019 17:00:00 3,1 3,1 11 6 - - SW 1002,7 10 1,3
13.01.2019 16:00:00 2,3 2,3 18 10 - - WSW 1003,3 9 1,3
13.01.2019 15:00:00 2,0 2,0 13 7 - - SW 1004,7 10 1,0
13.01.2019 14:00:00 1,5 1,5 11 6 - - SW 1005,7 10 1,0
13.01.2019 13:00:00 2,1 2,1 13 7 - - SW 1007,8 10 1,0
13.01.2019 12:00:00 2,4 2,4 15 8 - - SW 1008,8 10 1,8
13.01.2019 11:00:00 3,2 3,2 11 6 - - SW 1009,9 10 0,0
13.01.2019 10:00:00 3,1 3,1 9 5 - - SSW 1010,9 10 0,3
13.01.2019 09:00:00 2,9 2,9 8 4 - - SW 1011,6 10 0,3
13.01.2019 08:00:00 2,4 2,4 5 3 - - WSW 1011,9 10 0,0
13.01.2019 07:00:00 2,1 2,1 8 4 - - WSW 1012,2 10 0,3
13.01.2019 06:00:00 2,2 2,2 11 6 - - W 1012,2 10 0,0
13.01.2019 05:00:00 1,8 1,8 11 6 - - W 1012,2 10 0,0
13.01.2019 04:00:00 1,4 1,4 15 8 - - W 1012,8 10 0,0
13.01.2019 03:00:00 1,6 1,6 15 8 - - WSW 1012,6 10 0,8
13.01.2019 02:00:00 1,3 1,3 16 9 - - W 1012,8 10 0,5
13.01.2019 01:00:00 1,3 1,3 15 8 - - W 1012,8 10 0,3
13.01.2019 00:00:00 1,5 1,4 21 11 - - WSW 1012,9 10 0,3
12.01.2019 23:00:00 1,2 1,2 18 10 - - W 1013,5 10 0,8
12.01.2019 22:00:00 1,2 1,2 13 7 - - WSW 1014,2 9 1,3
12.01.2019 21:00:00 1,1 1,1 15 8 - - WSW 1014,9 9 1,3
12.01.2019 20:00:00 1,1 1,1 13 7 - - SW 1015,5 10 1,0
12.01.2019 19:00:00 1,0 1,0 11 6 - - SW 1016,6 9 1,5
12.01.2019 18:00:00 1,4 1,3 16 9 - - SW 1017,3 10 0,3
12.01.2019 17:00:00 1,8 1,7 18 10 - - WSW 1017,9 10 -
12.01.2019 16:00:00 1,6 1,5 22 12 - - W 1018,6 10 0,0
12.01.2019 15:00:00 1,7 1,6 13 7 - - SW 1019,7 10 0,0
12.01.2019 14:00:00 1,6 1,6 13 7 - - WSW 1020,0 10 0,3
12.01.2019 13:00:00 1,6 1,6 18 10 - - WSW 1021,0 10 0,0

tt = Température de l'air
td = dewpoint
ff = Vitesse du vent
fx = gusts
dd = Direction du vent
ppp = reduced air pressure
vv = visibility
rr = Quantités de précipitations

stations d'obs. à proximité